Date String (YYYY-MM-DD hh:mm:ss) UTC,Instrument flags,Ambient pressure (hPa),Sample flow (lpm),Bypass flow (lpm),Sample temperature (°C),Ambient temperature (°C),ASC tube jacket temperature (°C),LED temperature (°C),Box temperature (°C),Sample RH (%),Span deviation,Mass concentration (μg/m³),Mass concentration (μg/m³),Mass concentration (μg/m³)
DateTimeUTC,F1_M11,P_M11,Q1_M11,Q2_M11,T1_M11,T2_M11,T3_M11,T4_M11,T5_M11,U1_M11,ZSPAN_M11,X0_M11,X2_M11,X1_M11
2022-08-09 08:00:00,,0829.7,4.98,0.00,29.8,28.5,00.0,38.5,31.6,27.2,0000.0,0011.64,0005.80,0004.98
2022-08-09 08:01:00,,0829.7,4.99,0.00,29.7,27.6,00.0,38.5,31.5,27.3,0000.0,0011.88,0005.75,0004.99
2022-08-09 08:02:00,,0829.6,5.00,0.00,29.7,27.1,00.0,38.4,31.4,27.5,0000.0,0012.60,0005.73,0004.98
2022-08-09 08:03:00,,0829.7,5.00,0.00,29.6,27.0,00.0,38.4,31.3,27.7,0000.0,0013.86,0005.77,0005.00
2022-08-09 08:04:00,,0829.7,5.00,0.00,29.5,27.1,00.0,38.4,31.2,27.8,0000.0,0013.63,0005.78,0004.99
2022-08-09 08:05:00,,0829.7,4.99,0.00,29.5,27.3,00.0,38.3,31.2,27.8,0000.0,0013.44,0005.77,0004.99
2022-08-09 08:06:00,,0829.7,5.01,0.00,29.4,27.4,00.0,38.3,31.3,27.9,0000.0,0013.37,0005.75,0004.98
2022-08-09 08:07:00,,0829.7,4.99,0.00,29.4,27.6,00.0,38.3,31.3,28.0,0000.0,0012.48,0005.71,0004.96
2022-08-09 08:08:00,,0829.7,5.00,0.00,29.4,27.8,00.0,38.3,31.3,27.9,0000.0,0012.34,0005.72,0004.97
2022-08-09 08:09:00,,0829.7,5.01,0.00,29.4,27.9,00.0,38.3,31.3,28.0,0000.0,0012.53,0005.72,0004.98
2022-08-09 08:10:00,,0829.7,5.01,0.00,29.5,28.0,00.0,38.3,31.4,28.1,0000.0,0012.61,0005.74,0004.99
2022-08-09 08:11:00,,0829.7,5.00,0.00,29.5,28.2,00.0,38.3,31.4,28.1,0000.0,0012.43,0005.78,0005.00
2022-08-09 08:12:00,,0829.7,4.99,0.00,29.5,28.3,00.0,38.3,31.4,28.0,0000.0,0012.54,0005.84,0005.02
2022-08-09 08:13:00,,0829.7,5.00,0.00,29.5,28.4,00.0,38.3,31.5,28.0,0000.0,0011.73,0005.85,0005.04
2022-08-09 08:14:00,,0829.7,5.00,0.00,29.5,28.4,00.0,38.4,31.5,27.9,0000.0,0010.54,0005.83,0005.04
2022-08-09 08:15:00,,0829.7,5.00,0.00,29.6,28.5,00.0,38.4,31.6,27.9,0000.0,0010.53,0005.82,0005.06
2022-08-09 08:16:00,,0829.8,5.00,0.00,29.6,28.6,00.0,38.4,31.6,27.9,0000.0,0010.70,0005.80,0005.07
2022-08-09 08:17:00,,0829.8,5.00,0.00,29.6,28.6,00.0,38.4,31.6,28.0,0000.0,0010.82,0005.81,0005.08
2022-08-09 08:18:00,,0829.8,5.00,0.00,29.7,28.7,00.0,38.4,31.7,27.9,0000.0,0010.98,0005.85,0005.11
2022-08-09 08:19:00,,0829.8,5.00,0.00,29.7,28.7,00.0,38.4,31.7,27.8,0000.0,0011.71,0005.85,0005.13
2022-08-09 08:20:00,,0829.8,4.99,0.00,29.7,28.8,00.0,38.5,31.7,27.8,0000.0,0011.54,0005.86,0005.15
2022-08-09 08:21:00,,0829.8,5.01,0.00,29.8,28.8,00.0,38.5,31.7,27.8,0000.0,0011.44,0005.86,0005.17
2022-08-09 08:22:00,,0829.8,5.00,0.00,29.8,28.9,00.0,38.5,31.7,27.8,0000.0,0011.85,0005.85,0005.17
2022-08-09 08:23:00,,0829.8,5.00,0.00,29.8,28.8,00.0,38.5,31.7,27.8,0000.0,0011.94,0005.85,0005.18
2022-08-09 08:24:00,,0829.8,4.99,0.00,29.8,28.0,00.0,38.5,31.6,27.8,0000.0,0012.10,0005.87,0005.19
2022-08-09 08:25:00,,0829.8,5.01,0.00,29.7,27.6,00.0,38.5,31.5,27.8,0000.0,0012.13,0005.89,0005.21
2022-08-09 08:26:00,,0829.8,5.00,0.00,29.6,27.5,00.0,38.5,31.3,28.1,0000.0,0011.90,0005.87,0005.23
2022-08-09 08:27:00,,0829.8,5.00,0.00,29.6,27.6,00.0,38.4,31.3,28.3,0000.0,0011.59,0005.88,0005.25
2022-08-09 08:28:00,,0829.8,5.01,0.00,29.6,27.7,00.0,38.4,31.4,28.6,0000.0,0011.50,0005.90,0005.26
2022-08-09 08:29:00,,0829.8,4.99,0.00,29.6,27.8,00.0,38.4,31.4,29.0,0000.0,0011.45,0005.94,0005.28
2022-08-09 08:30:00,,0829.8,5.01,0.00,29.6,27.9,00.0,38.4,31.4,29.0,0000.0,0010.77,0006.00,0005.30
2022-08-09 08:31:00,,0829.8,5.00,0.00,29.6,28.1,00.0,38.4,31.5,28.9,0000.0,0010.91,0006.06,0005.30
2022-08-09 08:32:00,,0829.8,5.00,0.00,29.6,28.2,00.0,38.4,31.5,28.8,0000.0,0011.11,0006.10,0005.32
2022-08-09 08:33:00,,0829.8,5.00,0.00,29.6,28.3,00.0,38.4,31.5,28.8,0000.0,0010.85,0006.13,0005.33
2022-08-09 08:34:00,,0829.8,5.00,0.00,29.6,28.4,00.0,38.4,31.6,28.9,0000.0,0010.65,0006.14,0005.33
2022-08-09 08:35:00,,0829.8,4.99,0.00,29.6,28.5,00.0,38.5,31.6,29.1,0000.0,0010.70,0006.14,0005.34
2022-08-09 08:36:00,,0829.8,5.00,0.00,29.7,28.6,00.0,38.5,31.6,29.5,0000.0,0010.87,0006.11,0005.35
2022-08-09 08:37:00,,0829.8,5.00,0.00,29.7,28.6,00.0,38.5,31.7,29.5,0000.0,0011.68,0006.16,0005.36
2022-08-09 08:38:00,,0829.8,5.00,0.00,29.7,28.7,00.0,38.5,31.7,29.5,0000.0,0011.80,0006.21,0005.38
2022-08-09 08:39:00,,0829.9,5.00,0.00,29.7,28.8,00.0,38.5,31.8,29.5,0000.0,0012.53,0006.26,0005.40
2022-08-09 08:40:00,,0829.9,5.00,0.00,29.8,28.8,00.0,38.5,31.7,29.8,0000.0,0012.86,0006.24,0005.39
2022-08-09 08:41:00,,0829.9,5.00,0.00,29.8,28.9,00.0,38.6,31.8,30.0,0000.0,0013.07,0006.22,0005.38
2022-08-09 08:42:00,,0829.9,5.01,0.00,29.8,28.9,00.0,38.6,31.9,30.2,0000.0,0013.73,0006.22,0005.37
2022-08-09 08:43:00,,0829.8,5.00,0.00,29.9,28.6,00.0,38.6,31.8,30.4,0000.0,0013.66,0006.21,0005.36
2022-08-09 08:44:00,,0829.9,5.01,0.00,29.8,28.0,00.0,38.5,31.6,30.6,0000.0,0013.50,0006.19,0005.37
2022-08-09 08:45:00,,0829.8,4.99,0.00,29.8,27.6,00.0,38.5,31.5,30.7,0000.0,0013.04,0006.17,0005.39
2022-08-09 08:46:00,,0829.8,5.01,0.00,29.7,27.6,00.0,38.5,31.4,30.7,0000.0,0012.84,0006.17,0005.38
2022-08-09 08:47:00,,0829.8,5.00,0.00,29.6,27.6,00.0,38.5,31.4,30.4,0000.0,0012.77,0006.23,0005.39
2022-08-09 08:48:00,,0829.8,5.02,0.00,29.6,27.8,00.0,38.5,31.4,30.2,0000.0,0012.49,0006.22,0005.37
2022-08-09 08:49:00,,0829.8,4.99,0.00,29.6,27.9,00.0,38.5,31.5,30.1,0000.0,0012.45,0006.20,0005.36
2022-08-09 08:50:00,,0829.8,5.00,0.00,29.6,28.0,00.0,38.5,31.5,30.2,0000.0,0011.67,0006.16,0005.35
2022-08-09 08:51:00,,0829.8,5.01,0.00,29.6,28.1,00.0,38.5,31.5,30.2,0000.0,0011.52,0006.14,0005.35
2022-08-09 08:52:00,,0829.8,5.00,0.00,29.6,28.2,00.0,38.5,31.5,30.3,0000.0,0011.28,0006.16,0005.35
2022-08-09 08:53:00,,0829.8,5.00,0.00,29.6,28.3,00.0,38.5,31.5,30.3,0000.0,0010.59,0006.13,0005.35
2022-08-09 08:54:00,,0829.8,5.00,0.00,29.6,28.4,00.0,38.5,31.6,30.3,0000.0,0010.44,0006.09,0005.34
2022-08-09 08:55:00,,0829.9,5.01,0.00,29.7,28.5,00.0,38.5,31.6,30.3,0000.0,0010.71,0006.10,0005.34
2022-08-09 08:56:00,,0829.9,5.00,0.00,29.7,28.6,00.0,38.5,31.7,30.4,0000.0,0010.74,0006.09,0005.32
2022-08-09 08:57:00,,0829.9,5.00,0.00,29.7,28.6,00.0,38.5,31.7,30.6,0000.0,0010.84,0006.07,0005.32
2022-08-09 08:58:00,,0829.9,5.00,0.00,29.7,28.7,00.0,38.5,31.7,30.7,0000.0,0010.90,0006.05,0005.31
2022-08-09 08:59:00,,0829.9,5.00,0.00,29.8,28.7,00.0,38.5,31.7,30.8,0000.0,0010.64,0006.07,0005.32
